Location: Berg
(47.2344°N, 9.5296°E)
Time: 22:34:41
(UTC+00:00)

OE (NEXTSAT) - Pass Details

Date: 24 January 2021
Orbit: 426 x 435 km, 46.0° (Epoch: 03 March)

Event Time Altitude Azimuth Distance (km) Brightness Sun altitude
Rises 16:52:23 0° 263° (W) 2,382 10.0 -7.1°
Reaches altitude 10° 16:54:30 10° 262° (W) 1,516 8.7 -7.4°
Maximum altitude 16:57:55 73° 177° (S) 450 4.4 -8.0°
Drops below altitude 10° 17:01:20 10° 93° (E) 1,518 6.5 -8.5°
Enters shadow 17:01:21 10° 93° (E) 1,524 6.5 -8.5°
